CW5532 Weather Reports


Display with metric or nautical units.
time (UTC)temp
F
wind
direction
speed
MPH
gust
MPH
rain 1hr
in
rain 24hr
in
rain mn
in
humidity
%
barometer
mb
20260902113735 89 94 3.0 5.0 0.00 0.00 0.00 46 1017.9
20260902113236 88 92 4.0 10.0 0.00 0.00 0.00 47 1018.1
20260902100236 84 95 0.0 1.0 0.00 0.00 0.00 51 1018.9
20260902090736 81 92 0.0 2.0 0.00 0.00 0.00 65 1018.9
20260902090235 80 80 0.0 3.0 0.00 0.00 0.00 66 1019.0
20260902080735 76 105 0.0 0.0 0.00 0.00 0.00 72 1018.8
20260902080235 76 105 0.0 0.0 0.00 0.00 0.00 72 1018.7
20260902073736 73 239 0.0 0.0 0.00 0.00 0.00 76 1018.9
20260902070235 68 258 0.0 0.0 0.00 0.00 0.00 79 1019.0
20260902063235 65 247 0.0 0.0 0.00 0.00 0.00 80 1019.0
20260902060735 64 251 0.0 0.0 0.00 0.00 0.00 80 1018.8
20260902043735 62 246 0.0 0.0 0.00 0.00 0.00 80 1018.1
20260902043234 62 246 0.0 0.0 0.00 0.00 0.00 80 1018.0
20260902033735 62 258 0.0 0.0 0.00 0.00 0.00 80 1018.1
20260902033235 62 258 0.0 0.0 0.00 0.00 0.00 80 1018.1
20260902030734 62 258 0.0 0.0 0.00 0.00 0.00 80 1018.0
20260902030234 62 258 0.0 0.0 0.00 0.00 0.00 80 1018.0
20260902020235 64 223 0.0 0.0 0.00 0.00 0.00 80 1018.0
20260902013734 64 223 0.0 0.0 0.00 0.00 0.00 80 1018.0
20260902010735 65 223 0.0 0.0 0.00 0.00 0.00 80 1018.0
20260902003234 65 226 0.0 5.0 0.00 0.00 0.00 80 1018.1
20260902000734 64 175 0.0 0.0 0.00 0.00 0.00 80 1018.0
20260902000234 64 175 0.0 0.0 0.00 0.00 0.00 80 1018.0
20260901233734 65 175 0.0 0.0 0.00 0.00 0.00 80 1017.9
20260901230735 65 175 0.0 0.0 0.00 0.00 0.00 79 1017.7
20260901230234 66 175 0.0 0.0 0.00 0.00 0.00 79 1017.6
20260901223234 66 175 0.0 0.0 0.00 0.00 0.00 79 1017.4
20260901220234 67 175 0.0 0.0 0.00 0.00 0.00 79 1017.1
20260901213234 68 175 0.0 0.0 0.00 0.00 0.00 78 1017.0
20260901203234 70 175 0.0 0.0 0.00 0.00 0.00 77 1016.6
20260901193234 74 175 0.0 0.0 0.00 0.00 0.00 74 1016.0
20260901180234 79 166 0.0 3.0 0.00 0.00 0.00 67 1015.8
20260901173733 80 171 0.0 2.0 0.00 0.00 0.00 65 1015.9
20260901173233 80 149 0.0 9.0 0.00 0.00 0.00 64 1016.0
20260901170733 81 175 0.0 3.0 0.00 0.00 0.00 64 1016.0
20260901163733 82 206 1.0 5.0 0.00 0.00 0.00 62 1015.9
20260901163233 83 157 1.0 12.0 0.00 0.00 0.00 61 1015.9
20260901160233 85 181 2.0 7.0 0.00 0.00 0.00 57 1015.9
20260901153233 86 129 2.0 13.0 0.00 0.00 0.00 55 1015.8
20260901150733 84 201 1.0 6.0 0.00 0.00 0.00 57 1016.0
20260901143733 87 218 1.0 8.0 0.00 0.00 0.00 52 1015.9
20260901140733 86 217 5.0 10.0 0.00 0.00 0.00 54 1016.2
20260901133733 84 117 1.0 5.0 0.00 0.00 0.00 57 1016.3
20260901130733 85 216 2.0 9.0 0.00 0.00 0.00 55 1016.8
20260901123733 85 117 4.0 9.0 0.00 0.00 0.00 53 1016.9
20260901120733 86 139 1.0 10.0 0.00 0.00 0.00 53 1017.1